星链-5862 (STARLINK-5862 )

导读

STARLINK-5862是美国太空探索技术公司(SpaceX)星链计划中的一颗卫星,于2023年3月17日发射升空,属于星链卫星互联网项目的组网卫星,承担着为全球范围提供高速互联网接入服务的任务,进一步扩充了星链卫星星座的规模,推动了全球卫星互联网网络的部署进程。

基本信息
目录编号:
55920
目录名称:
STARLINK-5862
国际标识:
2023-037G
轨道中心:
EARTH
卫星名称:
星链-5862
卫星全名:
星链-5862 (STARLINK-5862 )
卫星状态:
在轨 (已飞行1186 天)
发射日期:
2023-03-17 UTC
国别 :
美国 (US)
星等 :
--
轨道信息
数据来源 国际轨道数据 AOE轨道数据
星历时间 2026-06-14T09:54:54+0800
22小时前
查看轨道信息
2026-06-14T23:00:00+0800
9小时前
查看轨道信息
半长轴 6950.183km 6950.093km
偏心率 0.0002996 0.0003029
轨道倾角 70.000° 70.001°
近地点辐角 268.559° 268.565°
升交点赤经 41.620° 40.245°
平近点角 91.523° 151.556°
近地点 569.963km 569.85km
远地点 574.129km 574.062km
周期 96.107分钟 96.105分钟
每日圈数 14.983332 14.983625
详细信息
固有亮度:
5
最大亮度:
2.5
卫星平台:
Starlink v1.5
覆盖范围:
全球
运营商:
太空探索技术公司
运营商所在国:
美国
制造商(研发单位):
太空探索技术公司
制造商所在国:
美国
使用方式:
暂无
卫星简介
星链(Starlink)计划是由太空探索技术公司(SpaceX)提出的一个巨型低轨卫星互联网星座项目,计划在2019年至2024年间在太空搭建由约1.2万颗卫星组成的“星链”网络,其中1584颗将部署在地球上空550千米处的近地轨道,并从2020年开始工作。该卫星仍在工作。
2D轨道图
3D轨道图
轨道高度分析图
轨道倾角分析图
轨道综合分析图
查看轨道综合分析图